Tracking 25612 objects as of 20-May-2022
HD Live streaming from Space Station
objects crossing your sky now

SL-8 R/B

Track SL-8 R/B now!
10-day predictions


NORAD ID: 11170
Int'l Code: 1978-122B
Perigee: 1,165.5 km
Apogee: 1,202.4 km
Inclination: 83.0 °
Period: 108.9 minutes
Semi major axis: 7554 km
RCS: 7.1197 m2 (large)
Launch date: December 26, 1978
Source: Commonwealth of Independent States (former USSR) (CIS)
Launch site: PLESETSK MISSILE AND SPACE COMPLEX (PKMTR)

Note: This is a ROCKET BODY
aabbcc
Your satellite tracking list
Your tracking list is empty




NASA's NSSDC Master Catalog

Two Line Element Set (TLE):
1 11170U 78122B   22139.67435816  .00000047  00000-0  82260-4 0  9990
2 11170  82.9699 100.6960 0024406 218.2084 315.2809 13.22064645 76046
Source of the keplerian elements: AFSPC